Location: Rowland
(34.5359°N, 79.2929°W)
Time: 18:47:01
(UTC+00:00)

Transit 2A Rocket - Pass Details

Date: 07 October 2022
Orbit: 589 x 911 km, 66.7° (Epoch: 02 December)

Event Time Altitude Azimuth Distance (km) Brightness Sun altitude
Rises 17:57:44 0° 348° (NNW) 3,044 7.8 47.9°
Reaches altitude 10° 18:00:26 10° 3° (N) 2,182 7.1 47.7°
Maximum altitude 18:04:21 23° 55° (NE) 1,565 6.5 47.4°
Drops below altitude 10° 18:08:31 10° 107° (ESE) 2,345 7.6 47.1°
Sets 18:11:32 0° 121° (ESE) 3,332 8.4 46.8°
